Regional Weather Roundup
Issued by NWS

Home | Current Version | Previous Version | Graphics & Text | Print | Product List | Glossary On
Versions: 1 2 3 4 5 6 7 8 9 10 11 12 13 14 15 16 17 18 19 20 21 22 23 24 25 26 27 28 29 30 31 32 33 34 35 36 37 38 39 40 41 42 43 44 45 46 47 48 49 50
000
ASUS44 KMEG 202200
RWRTN
TENNESSEE HOURLY STATE WEATHER ROUNDUP
NATIONAL WEATHER SERVICE MEMPHIS TN
400 PM CST SAT DEC 20 2014

TNZ002-004-019-021-049-052-054-088>092-202300-
WEST TENNESSEE

CITY           SKY/WX    TMP DP  RH WIND       PRES   REMARKS
MEMPHIS INTL   MOCLDY    49  33  54 NE5       30.21F
NWS MEMPHIS      N/A     48 N/A N/A MISG        N/A
JACKSON        CLEAR     49  31  49 N5        30.23R
DYERSBURG      CLEAR     45  25  45 NE5       30.26R
UNION CITY     CLEAR     43  30  61 CALM      30.24R
PARIS          CLEAR     39  28  65 CALM      30.24S
LEXINGTON      CLEAR     43  28  56 NE5       30.23R
SAVANNAH       CLEAR     48  30  49 N7        30.22R
$$

TNZ008-025-027-028-033-062-065-066-202300-
NORTH MIDDLE TENNESSEE

CITY           SKY/WX    TMP DP  RH WIND       PRES   REMARKS
NASHVILLE      MOCLDY    45  28  51 N6        30.24R
CLARKSVILLE    MOCLDY    41  28  60 CALM      30.26R
COOKEVILLE     CLEAR     46  28  49 N3        30.20R
CROSSVILLE     CLOUDY    45  26  47 N7        30.18R
$$

TNZ061-075-076-078-094-096-097-202300-
SOUTH MIDDLE TENNESSEE

CITY           SKY/WX    TMP DP  RH WIND       PRES   REMARKS
FAYETTEVILLE   CLEAR     46  28  49 MISG      30.19S
TULLAHOMA      CLEAR     46  27  46 N6        30.20R
WINCHESTER     CLEAR     46  30  53 N6        30.20R
SHELBYVILLE    CLEAR     46  30  53 N6        30.22R
$$

TNZ017-018-042-046-047-202300-
NORTHEAST TENNESSEE

CITY           SKY/WX    TMP DP  RH WIND       PRES   REMARKS
TRI CITIES     CLOUDY    42  37  82 CALM      30.18S
ELIZABETHTON   CLOUDY    39  34  81 W5        30.18R
$$

TNZ012-013-036-069-073-074-202300-
CENTRAL EAST TENNESSEE

CITY           SKY/WX    TMP DP  RH WIND       PRES   REMARKS
KNOXVILLE      CLOUDY    42  34  73 E3        30.20S
OAK RIDGE      CLOUDY    46  33  60 E3        30.21R
GATLINBURG     CLOUDY    39  36  87 CALM      30.20R
$$

TNZ083-085-099-202300-
SOUTHEAST TENNESSEE

CITY           SKY/WX    TMP DP  RH WIND       PRES   REMARKS
CHATTANOOGA    PTCLDY    48  32  53 E5        30.19R
$$

SKY/WX REPORTED AS FAIR MEANS FEW OR NO CLOUDS BELOW
12 THOUSAND FEET.



USA.gov is the U.S. government's official web portal to all federal, state and local government web resources and services.